TimeCDT,TemperatureF,Dew PointF,Humidity,Sea Level PressureIn,VisibilityMPH,Wind Direction,Wind SpeedMPH,Gust SpeedMPH,PrecipitationIn,Events,Conditions,WindDirDegrees,DateUTC
12:15 AM,28.4,21.2,74,29.87,10.0,WNW,10.4,-,N/A,,Overcast,290,2013-03-12 05:15:00
12:35 AM,28.4,21.2,74,29.87,10.0,WNW,11.5,-,N/A,,Overcast,290,2013-03-12 05:35:00
12:55 AM,30.2,21.2,69,29.87,10.0,WNW,17.3,20.7,N/A,,Overcast,290,2013-03-12 05:55:00
1:15 AM,30.2,21.2,69,29.87,10.0,NW,17.3,-,N/A,,Overcast,310,2013-03-12 06:15:00
1:35 AM,30.2,23.0,75,29.87,10.0,WNW,18.4,-,N/A,,Overcast,290,2013-03-12 06:35:00
1:55 AM,30.2,21.2,69,29.86,10.0,WNW,16.1,-,N/A,,Overcast,290,2013-03-12 06:55:00
2:15 AM,28.4,21.2,74,29.86,10.0,West,15.0,-,N/A,,Mostly Cloudy,280,2013-03-12 07:15:00
2:35 AM,26.6,19.4,74,29.87,10.0,West,16.1,-,N/A,,Partly Cloudy,270,2013-03-12 07:35:00
2:55 AM,26.6,19.4,74,29.86,10.0,West,18.4,23.0,N/A,,Clear,270,2013-03-12 07:55:00
3:15 AM,26.6,19.4,74,29.87,10.0,West,18.4,-,N/A,,Clear,280,2013-03-12 08:15:00
3:35 AM,28.4,19.4,69,29.87,10.0,West,20.7,-,N/A,,Mostly Cloudy,280,2013-03-12 08:35:00
3:55 AM,28.4,19.4,69,29.86,10.0,WNW,21.9,-,N/A,,Overcast,290,2013-03-12 08:55:00
4:15 AM,28.4,21.2,74,29.86,10.0,WNW,21.9,-,N/A,,Overcast,300,2013-03-12 09:15:00
4:35 AM,28.4,21.2,74,29.86,10.0,WNW,18.4,-,N/A,,Overcast,290,2013-03-12 09:35:00
4:55 AM,28.4,21.2,74,29.87,10.0,WNW,18.4,-,N/A,,Overcast,290,2013-03-12 09:55:00
5:15 AM,28.4,21.2,74,29.87,10.0,West,18.4,-,N/A,,Overcast,280,2013-03-12 10:15:00
5:35 AM,28.4,21.2,74,29.87,10.0,WNW,18.4,-,N/A,,Overcast,290,2013-03-12 10:35:00
5:55 AM,28.4,21.2,74,29.88,8.0,WNW,20.7,24.2,N/A,,Overcast,290,2013-03-12 10:55:00
6:15 AM,28.4,21.2,74,29.89,8.0,WNW,21.9,-,N/A,,Overcast,300,2013-03-12 11:15:00
6:35 AM,26.6,19.4,74,29.91,5.0,NNW,17.3,-,N/A,,Overcast,340,2013-03-12 11:35:00
6:55 AM,24.8,19.4,80,29.91,6.0,NNW,17.3,-,N/A,,Overcast,340,2013-03-12 11:55:00
7:15 AM,24.8,17.6,74,29.92,5.0,NNW,19.6,25.3,N/A,,Overcast,330,2013-03-12 12:15:00
7:35 AM,23.0,17.6,80,29.93,5.0,NNW,19.6,-,N/A,,Overcast,340,2013-03-12 12:35:00
7:55 AM,21.2,15.8,80,29.94,6.0,NNW,19.6,-,N/A,,Overcast,340,2013-03-12 12:55:00
8:15 AM,21.2,15.8,80,29.95,6.0,North,19.6,-,N/A,,Mostly Cloudy,350,2013-03-12 13:15:00
8:35 AM,19.4,15.8,86,29.97,3.0,NNW,18.4,24.2,N/A,,Overcast,340,2013-03-12 13:35:00
8:55 AM,19.4,14.0,80,29.98,5.0,NNW,19.6,24.2,N/A,,Overcast,340,2013-03-12 13:55:00
9:15 AM,19.4,14.0,80,29.99,8.0,NNW,19.6,-,N/A,,Mostly Cloudy,340,2013-03-12 14:15:00
9:35 AM,19.4,14.0,80,30.00,8.0,NW,16.1,-,N/A,,Scattered Clouds,320,2013-03-12 14:35:00
9:55 AM,21.2,14.0,74,30.02,10.0,NNW,18.4,25.3,N/A,,Scattered Clouds,330,2013-03-12 14:55:00
10:15 AM,21.2,14.0,74,30.03,10.0,NNW,18.4,-,N/A,,Mostly Cloudy,330,2013-03-12 15:15:00
10:35 AM,21.2,14.0,74,30.04,9.0,NW,20.7,-,N/A,,Mostly Cloudy,320,2013-03-12 15:35:00
10:55 AM,21.2,14.0,74,30.04,5.0,NW,20.7,-,N/A,,Overcast,320,2013-03-12 15:55:00
11:15 AM,21.2,14.0,74,30.05,5.0,NW,19.6,27.6,N/A,,Overcast,320,2013-03-12 16:15:00
11:35 AM,21.2,15.8,80,30.06,3.0,NW,21.9,31.1,N/A,,Overcast,320,2013-03-12 16:35:00
11:55 AM,21.2,15.8,80,30.07,7.0,NNW,18.4,-,N/A,,Overcast,330,2013-03-12 16:55:00
12:15 PM,23.0,15.8,74,30.08,10.0,NNW,21.9,25.3,N/A,,Mostly Cloudy,330,2013-03-12 17:15:00
12:35 PM,23.0,15.8,74,30.08,6.0,NW,21.9,-,N/A,,Mostly Cloudy,320,2013-03-12 17:35:00
12:55 PM,23.0,15.8,74,30.09,5.0,NW,21.9,31.1,N/A,,Mostly Cloudy,320,2013-03-12 17:55:00
1:15 PM,24.8,15.8,69,30.09,5.0,NNW,25.3,29.9,N/A,,Overcast,330,2013-03-12 18:15:00
1:35 PM,24.8,15.8,69,30.10,5.0,NW,26.5,29.9,N/A,,Overcast,310,2013-03-12 18:35:00
1:55 PM,24.8,15.8,69,30.10,5.0,NNW,24.2,32.2,N/A,,Overcast,330,2013-03-12 18:55:00
2:15 PM,24.8,15.8,69,30.10,2.0,NW,23.0,31.1,N/A,,Overcast,320,2013-03-12 19:15:00
2:35 PM,24.8,15.8,69,30.10,3.0,NW,25.3,28.8,N/A,,Overcast,320,2013-03-12 19:35:00
2:55 PM,24.8,15.8,69,30.10,9.0,NW,25.3,-,N/A,,Overcast,320,2013-03-12 19:55:00
3:15 PM,24.8,15.8,69,30.10,10.0,NW,23.0,-,N/A,,Scattered Clouds,320,2013-03-12 20:15:00
3:35 PM,24.8,15.8,69,30.11,10.0,NW,27.6,32.2,N/A,,Mostly Cloudy,320,2013-03-12 20:35:00
3:55 PM,24.8,15.8,69,30.11,10.0,NW,27.6,34.5,N/A,,Mostly Cloudy,320,2013-03-12 20:55:00
4:15 PM,24.8,15.8,69,30.12,10.0,NW,24.2,33.4,N/A,,Mostly Cloudy,320,2013-03-12 21:15:00
4:35 PM,26.6,15.8,64,30.13,10.0,NW,27.6,35.7,N/A,,Overcast,320,2013-03-12 21:35:00
4:55 PM,26.6,15.8,64,30.13,10.0,NW,26.5,34.5,N/A,,Mostly Cloudy,320,2013-03-12 21:55:00
5:15 PM,26.6,15.8,64,30.13,10.0,NW,26.5,-,N/A,,Partly Cloudy,320,2013-03-12 22:15:00
5:35 PM,26.6,15.8,64,30.14,10.0,NW,26.5,32.2,N/A,,Partly Cloudy,320,2013-03-12 22:35:00
5:55 PM,24.8,14.0,64,30.14,10.0,NW,26.5,32.2,N/A,,Partly Cloudy,320,2013-03-12 22:55:00
6:15 PM,24.8,15.8,69,30.15,10.0,NW,25.3,34.5,N/A,,Partly Cloudy,320,2013-03-12 23:15:00
6:35 PM,24.8,14.0,64,30.15,10.0,NW,25.3,32.2,N/A,,Partly Cloudy,320,2013-03-12 23:35:00
6:55 PM,24.8,15.8,69,30.16,10.0,NW,21.9,27.6,N/A,,Clear,320,2013-03-12 23:55:00
7:15 PM,24.8,15.8,69,30.17,10.0,NW,23.0,-,N/A,,Clear,320,2013-03-13 00:15:00
7:35 PM,23.0,15.8,74,30.18,10.0,NW,20.7,26.5,N/A,,Partly Cloudy,320,2013-03-13 00:35:00
7:55 PM,23.0,15.8,74,30.20,10.0,NW,18.4,-,N/A,,Scattered Clouds,320,2013-03-13 00:55:00
8:15 PM,23.0,14.0,68,30.20,10.0,NNW,24.2,33.4,N/A,,Scattered Clouds,330,2013-03-13 01:15:00
8:35 PM,21.2,14.0,74,30.21,10.0,NNW,25.3,31.1,N/A,,Scattered Clouds,330,2013-03-13 01:35:00
8:55 PM,21.2,14.0,74,30.22,10.0,NW,23.0,31.1,N/A,,Scattered Clouds,320,2013-03-13 01:55:00
9:15 PM,21.2,12.2,68,30.22,10.0,NNW,21.9,27.6,N/A,,Partly Cloudy,330,2013-03-13 02:15:00
9:35 PM,21.2,12.2,68,30.23,10.0,NNW,18.4,27.6,N/A,,Partly Cloudy,330,2013-03-13 02:35:00
9:55 PM,21.2,12.2,68,30.24,10.0,NNW,20.7,27.6,N/A,,Mostly Cloudy,330,2013-03-13 02:55:00
10:15 PM,21.2,12.2,68,30.25,10.0,NNW,19.6,-,N/A,,Overcast,330,2013-03-13 03:15:00
10:35 PM,21.2,12.2,68,30.25,10.0,NNW,23.0,32.2,N/A,,Overcast,330,2013-03-13 03:35:00
10:55 PM,21.2,12.2,68,30.25,10.0,NNW,24.2,27.6,N/A,,Overcast,330,2013-03-13 03:55:00
11:15 PM,21.2,12.2,68,30.26,10.0,NNW,23.0,28.8,N/A,,Overcast,330,2013-03-13 04:15:00
11:35 PM,19.4,12.2,74,30.26,10.0,NNW,20.7,-,N/A,,Overcast,340,2013-03-13 04:35:00
11:55 PM,19.4,12.2,74,30.26,10.0,NNW,17.3,-,N/A,,Overcast,330,2013-03-13 04:55:00